Location: Newark
(49.3000°N, 9.4667°E)
Time: 22:09:20
(UTC+00:00)

Transit 4A - Pass Details

Date: 01 June 2019
Orbit: 862 x 983 km, 66.8° (Epoch: 24 June)

Event Time Altitude Azimuth Distance (km) Brightness Sun altitude
Rises 20:02:25 0° 324° (NW) 3,697 13.3 -6.2°
Reaches altitude 10° 20:05:03 10° 328° (NNW) 2,747 12.0 -6.5°
Maximum altitude 20:11:25 59° 48° (NE) 1,122 8.4 -7.2°
Drops below altitude 10° 20:17:40 10° 128° (SE) 2,699 9.7 -7.9°
Enters shadow 20:17:54 - 128° (SE) 2,780 9.7 -7.9°
